Airfield :
LOGIN :

Register | Disclaimer

   EN    FR    IT 

 










Legend :    VFR   Marginal VFR   IFR   Intensive IFR   Very Intensive IFR
Visi :
Ceiling :
>= 8 km
>= 3000ft
5 to 8 km
1000 to 3000 ft
1500m to 5 km
500 to 1000 ft
800 to 1500m
200 to 500 ft
< 800m
< 200 ft
Symbols :   Thunderstorms  Fog  Heavy snow  Heavy precipitations  Wind > 20 kt
SIGMETs :     Misc.  Thunderstorms  Icing  Turbulence  Mountain Waves  Volcanic Ashes






- Airport Elevation : 291 ft
- IATA code : ORY


LFPO - Paris-Orly

CURRENT METAR :
  • 191130Z 32006KT 280V020 CAVOK 21/13 Q1013 NOSIG

EXPIRED METARs :
  • 191100Z 33007KT 290V360 CAVOK 21/13 Q1013 NOSIG
  • 191030Z 32007KT CAVOK 20/14 Q1013 NOSIG
  • 191000Z 30008KT CAVOK 19/13 Q1013 NOSIG
  • 190930Z 32007KT 270V350 CAVOK 18/13 Q1013 NOSIG
  • 190900Z 30007KT 270V340 CAVOK 18/13 Q1013 NOSIG

TAF TAF LFPO
Valid from the 19 at 06:00 until the 20 at 12:00 UTC


190500Z 1906/2012 33005KT CAVOK
TEMPO 1906/1908 BKN009
TEMPO 1917/2007 3500 RA BKN008 SCT040CB
TEMPO 2007/2011 BKN008
ATIS : +33 1 49 75 65 80



MET'MAP, your aeronautical weather chart ! - Copyright ORBIFLY December 2007 - Disclaimer

ORBIFLY MET'MAP TEAM :

Programming & Development : Alexandra Zaïnal
Concept & original design : Baudouin d'Aumeries
Assistance for programming : Marc-Olivier Méhu
Technical & hardware support : Manuel Goepfert

Contact : metmap@orbifly.com




SOURCES & CREDITS :

   NOAA